Retour au catalogue

ASNARO-2

ActifScienceSSO
NORAD 43152·PAYLOAD·🇯🇵 Japan

Lancé Jan 17, 2018 depuis Uchinoura Space Center

Loading…

Prochains Passages (prochaines 24 heures)

TLE

FraisSource: Space-Track

Époque: Sep 14, 2026, 13:48 UTC

1 43152U 18007A   26257.57543260  .00006066  00000-0  26532-3 0  9994
2 43152  97.4000 263.1160 0001744  91.1907 268.9529 15.22431743481016

Suivez ASNARO-2 en temps réel avec AllMySat

Download on the App Store